User: anonymous   Login
Location: Unspecified
(0.0000°N, 0.0000°E)
Time: 20:48:25
(UTC+00:00)
Language:

PAYLOAD D - Orbit

View from above orbital plane
View from above orbital plane
View from above satellite
View from above satellite

Ground track
Ground track

The orbit data is extracted from the following two-line orbital elements,

1 27058U 01058D   23084.45576495  .00000031  00000-0  11441-3 0  9996
2 27058  82.5323 238.6665 0003818 140.6759 219.4609 12.62042004978461
Epoch (UTC): 25 March 2023 10:56:18
Eccentricity: 0.0003818
inclination: 82.5323°
perigee height: 1411 km
apogee height: 1417 km
right ascension of ascending node: 238.6665°
argument of perigee: 140.6759°
revolutions per day: 12.62042004
mean anomaly at epoch: 219.4609°
orbit number at epoch: 97846

The dashed part of the orbit path shows where the satellite is in the earth's shadow,  

DLR